{"data":{"norad_id":60431,"intl_designator":"2024-144G","name":"STARLINK-32232","alt_names":[],"object_type":"PAYLOAD","status":"ACTIVE","operator":null,"country":"US","launch_date":"2024-08-12","launch_site_code":"AFETR","launch_vehicle":null,"mission":null,"orbit_class":"UNKNOWN","rcs_meters":null,"size_class":null,"mass_kg":null,"dimensions":null,"purposes":["comms"],"wikipedia_slug":null,"has_3d_model":false,"image_url":null,"decayed_at":null,"tle_current":{"epoch":"2026-09-21T19:21:17.977248Z","epoch_age_seconds":72703,"freshness":"FRESH","line1":"1 60431U 24144G   26264.80645807 -.00000928  00000+0 -16344-4 0  9999","line2":"2 60431  53.1622  23.4854 0001322  82.8358 277.2795 15.34387953119371","mean_motion":15.34387953,"eccentricity":0.0001322,"inclination_deg":53.1622,"raan_deg":23.4854,"arg_perigee_deg":82.8358,"mean_anomaly_deg":277.2795,"bstar":-1.6344e-5,"rev_number":11937,"period_min":93.848494911899,"perigee_km":461.8346828508,"apogee_km":463.64341047754,"semimajor_km":6840.8760466642,"source":"CELESTRAK","updated_at":"2026-09-22T09:00:49.234545Z"}}}